星链-30571 (STARLINK-30571 )

导读 | 星芒AI

STARLINK-30571 是 SpaceX Starlink 项目中的一颗低轨通信卫星,属于第三代星链卫星(v1.5)。该卫星于2023年发射,旨在为全球用户提供高速互联网服务。它运行在约550公里高的近地轨道,配备先进推进系统和激光通信设备,以提升网络性能和减少延迟。STARLINK-30571 是 SpaceX 扩展其卫星互联网星座计划的一部分,有助于改善偏远地区的网络接入。

基本信息
目录编号:
58066
目录名称:
STARLINK-30571
国际标识:
2023-158R
轨道中心:
EARTH
卫星名称:
星链-30571
卫星全名:
星链-30571 (STARLINK-30571 )
卫星状态:
在轨 (已飞行749 天)
发射日期:
2023-10-13 UTC
国别 :
美国 (US)
星等 :
--
轨道信息
数据来源 国际轨道数据 AOE轨道数据
星历时间 2025-10-30T21:50:42+0800
17小时前
查看轨道信息
2025-10-25T03:00:00+0800
6天前
查看轨道信息
半长轴 6937.217km 6937.195km
偏心率 0.0001352 0.0001497
轨道倾角 43.003° 43.005°
近地点辐角 267.358° 261.386°
升交点赤经 16.930° 48.366°
平近点角 92.711° 89.863°
近地点 558.144km 558.021km
远地点 560.02km 560.099km
周期 95.838分钟 95.838分钟
每日圈数 15.025359 15.025432
详细信息
固有亮度:
5
最大亮度:
0.3
卫星平台:
Starlink v2.0 mini
覆盖范围:
全球
运营商:
太空探索技术公司
运营商所在国:
美国
制造商(研发单位):
太空探索技术公司
制造商所在国:
美国
使用方式:
暂无
卫星简介
星链(Starlink)计划是由太空探索技术公司(SpaceX)提出的一个巨型低轨卫星互联网星座项目,计划在2019年至2024年间在太空搭建由约1.2万颗卫星组成的“星链”网络,其中1584颗将部署在地球上空550千米处的近地轨道,并从2020年开始工作。该卫星仍在工作。
2D轨道图
3D轨道图
轨道高度分析图
轨道倾角分析图
轨道综合分析图
查看轨道综合分析图